User: anonymous   Login
Location: Unspecified
(0.0000°N, 0.0000°E)
Time: 09:14:26
(UTC+00:00)
Language:

PERSEUS M2 - Orbit

View from above orbital plane
View from above orbital plane
View from above satellite
View from above satellite

Ground track
Ground track

The orbit data is extracted from the following two-line orbital elements,

1 40037U 14033AD  19345.78755597  .00000052  00000-0  12166-4 0  9997
2 40037  97.8897 258.5277 0013663 206.0884 153.9644 14.86499618297137
Epoch (UTC): 11 December 2019 18:54:04
Eccentricity: 0.0013663
inclination: 97.8897°
perigee height: 599 km
apogee height: 618 km
right ascension of ascending node: 258.5277°
argument of perigee: 206.0884°
revolutions per day: 14.86499618
mean anomaly at epoch: 153.9644°
orbit number at epoch: 29713

The dashed part of the orbit path shows where the satellite is in the earth's shadow,  

DLR